TOM545 GMMX-LEIB

Flight info

Callsign TOM545
Flight time 0h 35m
Altitude 36000
Route OBOGA UG850 BERUM N860 AMR/N0445F270 Y810 ALT N851 RUXET
Aircraft B738/M-SDE2E3FGHIRWXY/LB1

Departure

Time 2026-04-30 19:45
Airport Marrakesh Menara Airport (GMMX)

Arrival

Time 2026-04-30 20:20
Airport Ibiza Airport (LEIB)
Time Latitude Longitude Altitude Speed Heading
2026-04-30 19:17 31.60184 -8.02305 1540 ft 0 kts 273°
2026-04-30 19:37 31.60183 -8.02293 1538 ft 3 kts 273°
2026-04-30 19:37 31.60182 -8.02271 1546 ft 3 kts 273°
2026-04-30 19:37 31.60182 -8.02249 1540 ft 2 kts 273°
2026-04-30 19:37 31.60179 -8.02230 1542 ft 2 kts 312°
2026-04-30 19:38 31.60168 -8.02222 1544 ft 1 kts
2026-04-30 19:38 31.60164 -8.02222 1538 ft 0 kts
2026-04-30 19:39 31.60201 -8.02218 1546 ft 7 kts
2026-04-30 19:40 31.60205 -8.02218 1549 ft 0 kts
2026-04-30 19:40 31.60242 -8.02208 1540 ft 11 kts
2026-04-30 19:40 31.60350 -8.02197 1544 ft 17 kts
2026-04-30 19:40 31.60394 -8.02240 1542 ft 13 kts 280°
2026-04-30 19:41 31.60409 -8.02400 1546 ft 21 kts 275°
2026-04-30 19:41 31.60421 -8.02534 1543 ft 29 kts 276°
2026-04-30 19:41 31.60441 -8.02774 1542 ft 29 kts 275°
2026-04-30 19:41 31.60462 -8.02999 1547 ft 27 kts 277°
2026-04-30 19:42 31.60487 -8.03283 1547 ft 25 kts 273°
2026-04-30 19:42 31.60498 -8.03423 1547 ft 27 kts 276°
2026-04-30 19:42 31.60519 -8.03667 1541 ft 33 kts 276°
2026-04-30 19:42 31.60545 -8.03955 1544 ft 36 kts 275°
2026-04-30 19:43 31.60570 -8.04241 1545 ft 34 kts 276°
2026-04-30 19:43 31.60594 -8.04502 1545 ft 31 kts 275°
2026-04-30 19:43 31.60614 -8.04741 1541 ft 29 kts 276°
2026-04-30 19:44 31.60653 -8.05178 1549 ft 25 kts 272°
2026-04-30 19:44 31.60770 -8.05245 1550 ft 22 kts 22°
2026-04-30 19:44 31.60817 -8.05090 1549 ft 22 kts 96°
2026-04-30 19:44 31.60785 -8.04701 1539 ft 82 kts 97°
2026-04-30 19:45 31.60702 -8.03774 1535 ft 144 kts 96°
2026-04-30 19:45 31.60577 -8.02422 1702 ft 178 kts 94°
2026-04-30 19:45 31.60421 -8.01059 2635 ft 167 kts 96°
2026-04-30 19:45 31.60190 -7.99673 3167 ft 184 kts 110°
2026-04-30 19:46 31.59547 -7.98325 3685 ft 198 kts 117°
2026-04-30 19:46 31.58886 -7.96780 3909 ft 223 kts 114°
2026-04-30 19:46 31.58176 -7.95052 4105 ft 244 kts 114°
2026-04-30 19:46 31.57535 -7.93195 4431 ft 260 kts 98°
2026-04-30 19:47 31.57806 -7.91087 4922 ft 270 kts 60°
2026-04-30 19:47 31.58595 -7.89917 5375 ft 273 kts 39°
2026-04-30 19:47 31.60859 -7.88575 6343 ft 280 kts 17°
2026-04-30 19:47 31.62749 -7.87967 7042 ft 284 kts 14°
2026-04-30 19:48 31.64680 -7.87410 7742 ft 288 kts 13°
2026-04-30 19:48 31.72428 -7.85060 10561 ft 301 kts 14°
2026-04-30 19:48 31.81087 -7.82278 12390 ft 348 kts 14°
2026-04-30 19:48 31.89087 -7.74712 14110 ft 397 kts 48°
2026-04-30 19:49 31.96566 -7.64833 16526 ft 409 kts 45°
2026-04-30 19:49 32.12303 -7.44426 20700 ft 435 kts 45°
2026-04-30 19:49 32.20518 -7.33669 22581 ft 447 kts 44°
2026-04-30 19:50 32.28946 -7.22610 24184 ft 458 kts 44°
2026-04-30 19:50 32.37620 -7.11220 25411 ft 472 kts 44°
2026-04-30 19:50 32.46433 -6.99588 26878 ft 477 kts 44°
2026-04-30 19:50 32.55353 -6.87784 28098 ft 484 kts 43°
2026-04-30 19:51 32.64321 -6.75873 29612 ft 482 kts 43°
2026-04-30 19:51 32.73175 -6.64066 31287 ft 473 kts 43°
2026-04-30 19:51 32.81921 -6.52387 32538 ft 472 kts 42°
2026-04-30 19:51 32.90575 -6.40782 33964 ft 467 kts 42°
2026-04-30 19:52 32.99204 -6.29228 34962 ft 467 kts 41°
2026-04-30 19:52 33.07892 -6.17600 35733 ft 471 kts 42°
2026-04-30 19:52 33.16616 -6.05865 36245 ft 481 kts 44°
2026-04-30 19:52 33.25618 -5.93711 36153 ft 492 kts 44°
2026-04-30 19:53 33.43635 -5.69193 36093 ft 485 kts 46°
2026-04-30 19:53 33.61187 -5.45095 36097 ft 476 kts 49°
2026-04-30 19:54 33.78677 -5.20911 36179 ft 485 kts 49°
2026-04-30 19:54 33.97005 -4.96824 36110 ft 494 kts 37°
2026-04-30 19:55 34.18934 -4.77413 36054 ft 484 kts 38°
2026-04-30 19:55 34.56666 -4.40701 36092 ft 474 kts 39°
2026-04-30 19:56 34.98237 -4.00026 36165 ft 487 kts 39°
2026-04-30 19:56 35.40877 -3.57682 36078 ft 496 kts 40°
2026-04-30 19:57 35.83470 -3.14776 36028 ft 492 kts 40°
2026-04-30 19:57 36.25371 -2.71937 36023 ft 486 kts 40°
2026-04-30 19:58 36.66530 -2.29263 36045 ft 484 kts 40°
2026-04-30 19:58 37.07961 -1.85696 36019 ft 488 kts 41°
2026-04-30 19:59 37.49517 -1.41325 36030 ft 492 kts 41°
2026-04-30 20:00 38.12189 -0.73137 36035 ft 497 kts 40°
2026-04-30 20:00 38.32418 -0.49143 35890 ft 503 kts 56°
2026-04-30 20:00 38.37568 -0.29122 36084 ft 482 kts 84°
2026-04-30 20:01 38.39843 -0.16660 35155 ft 470 kts 72°
2026-04-30 20:01 38.41015 -0.12861 34763 ft 464 kts 69°
2026-04-30 20:01 38.42299 -0.09092 34388 ft 464 kts 68°
2026-04-30 20:02 38.44859 -0.01550 33588 ft 462 kts 69°
2026-04-30 20:02 38.46098 0.02230 33154 ft 461 kts 69°
2026-04-30 20:03 38.48518 0.09777 32338 ft 458 kts 69°
2026-04-30 20:03 38.49714 0.13525 31933 ft 451 kts 69°
2026-04-30 20:03 38.50893 0.17213 31718 ft 443 kts 68°
2026-04-30 20:03 38.52042 0.20808 31124 ft 440 kts 68°
2026-04-30 20:04 38.53194 0.24410 30731 ft 435 kts 68°
2026-04-30 20:04 38.54334 0.27977 30344 ft 430 kts 68°
2026-04-30 20:04 38.55458 0.31498 29934 ft 426 kts 68°
2026-04-30 20:05 38.57677 0.38464 28784 ft 420 kts 68°
2026-04-30 20:05 38.58778 0.41924 27992 ft 420 kts 68°
2026-04-30 20:05 38.60969 0.48825 26483 ft 417 kts 68°
2026-04-30 20:06 38.62061 0.52259 25757 ft 416 kts 68°
2026-04-30 20:06 38.63147 0.55670 25045 ft 413 kts 68°
2026-04-30 20:06 38.64227 0.59067 24351 ft 411 kts 68°
2026-04-30 20:06 38.65300 0.62445 23675 ft 408 kts 69°
2026-04-30 20:07 38.66404 0.65780 22883 ft 406 kts 62°
2026-04-30 20:07 38.68085 0.68636 22084 ft 402 kts 41°
2026-04-30 20:07 38.72541 0.72834 20591 ft 394 kts 34°
2026-04-30 20:08 38.74765 0.74819 19854 ft 391 kts 34°
2026-04-30 20:08 38.76976 0.76824 19155 ft 388 kts 34°
2026-04-30 20:08 38.79161 0.78836 18461 ft 385 kts 35°
2026-04-30 20:08 38.81323 0.80842 17684 ft 382 kts 35°
2026-04-30 20:09 38.87035 0.90742 14711 ft 373 kts 92°
2026-04-30 20:09 38.81576 1.00379 11838 ft 340 kts 166°
2026-04-30 20:09 38.72084 0.87145 6040 ft 308 kts 294°
2026-04-30 20:10 38.77296 0.81617 3633 ft 303 kts 351°
2026-04-30 20:10 38.79347 0.81462 3347 ft 287 kts
2026-04-30 20:10 38.81190 0.82105 3169 ft 269 kts 31°
2026-04-30 20:11 38.83239 0.85637 2994 ft 237 kts 73°
2026-04-30 20:11 38.83411 0.87687 2994 ft 230 kts 93°
2026-04-30 20:11 38.83051 0.89685 3005 ft 234 kts 110°
2026-04-30 20:12 38.81047 0.92878 3011 ft 236 kts 145°
2026-04-30 20:12 38.79678 0.94033 3017 ft 230 kts 145°
2026-04-30 20:12 38.78379 0.95118 3008 ft 216 kts 145°
2026-04-30 20:13 38.76855 0.96386 3022 ft 215 kts 145°
2026-04-30 20:13 38.72469 1.01223 2902 ft 211 kts 91°
2026-04-30 20:13 38.72929 1.02997 2984 ft 200 kts 53°
2026-04-30 20:13 38.73675 1.04525 3017 ft 207 kts 62°
2026-04-30 20:14 38.74324 1.06143 3004 ft 206 kts 60°
2026-04-30 20:14 38.75011 1.07752 2996 ft 202 kts 59°
2026-04-30 20:14 38.75696 1.09267 2992 ft 191 kts 59°
2026-04-30 20:14 38.76333 1.10721 2993 ft 185 kts 60°
2026-04-30 20:15 38.76940 1.12163 3001 ft 184 kts 60°
2026-04-30 20:15 38.77542 1.13618 3016 ft 185 kts 60°
2026-04-30 20:15 38.78142 1.15078 3011 ft 185 kts 61°
2026-04-30 20:15 38.78740 1.16535 3019 ft 184 kts 60°
2026-04-30 20:16 38.79329 1.17973 2992 ft 181 kts 60°
2026-04-30 20:16 38.79911 1.19390 2834 ft 178 kts 61°
2026-04-30 20:16 38.80484 1.20786 2611 ft 176 kts 61°
2026-04-30 20:16 38.81040 1.22140 2400 ft 171 kts 61°
2026-04-30 20:17 38.81582 1.23461 2162 ft 162 kts 61°
2026-04-30 20:17 38.82102 1.24725 1966 ft 158 kts 61°
2026-04-30 20:17 38.82605 1.25950 1748 ft 153 kts 61°
2026-04-30 20:17 38.83097 1.27147 1540 ft 150 kts 62°
2026-04-30 20:18 38.83587 1.28336 1349 ft 151 kts 62°
2026-04-30 20:18 38.84079 1.29534 1147 ft 151 kts 62°
2026-04-30 20:18 38.84569 1.30724 944 ft 151 kts 62°
2026-04-30 20:18 38.85058 1.31911 746 ft 150 kts 62°
2026-04-30 20:19 38.85539 1.33080 554 ft 149 kts 63°
2026-04-30 20:19 38.85868 1.33880 411 ft 151 kts 63°
2026-04-30 20:19 38.86505 1.35427 137 ft 147 kts 63°
2026-04-30 20:19 38.86974 1.36569 12 ft 137 kts 62°
2026-04-30 20:20 38.87370 1.37522 9 ft 101 kts 61°
2026-04-30 20:20 38.87621 1.38126 13 ft 50 kts 62°
2026-04-30 20:20 38.87752 1.38224 11 ft 15 kts 332°
2026-04-30 20:20 38.87818 1.38157 8 ft 9 kts 270°
2026-04-30 20:21 38.87792 1.38084 9 ft 9 kts 244°
2026-04-30 20:21 38.87763 1.38013 9 ft 9 kts 241°
2026-04-30 20:21 38.87719 1.37907 8 ft 19 kts 242°
2026-04-30 20:21 38.87638 1.37716 9 ft 26 kts 241°
2026-04-30 20:22 38.87588 1.37555 8 ft 10 kts 295°
2026-04-30 20:22 38.87656 1.37506 8 ft 16 kts 332°
2026-04-30 20:22 38.87681 1.37390 8 ft 16 kts 243°
2026-04-30 20:22 38.87630 1.37265 7 ft 16 kts 242°
2026-04-30 20:23 38.87580 1.37145 7 ft 15 kts 242°
2026-04-30 20:23 38.87551 1.37031 9 ft 13 kts 301°
2026-04-30 20:23 38.87576 1.37003 7 ft 1 kts 332°
2026-04-30 20:23 38.87589 1.36994 7 ft 3 kts 333°
2026-04-30 20:24 38.87596 1.36990 7 ft 0 kts 333°